CAPE
118 316 347 278 342 412 254 351 416 444 593 636 676 677 638 523 621 861 1179 1526 1256 1374 1234 1305 1182 891 1101 996 911 902 555 173 201 545 182 73 83 194 371 284 265 196 326
129 232 170 79 179 461 488 464 473 605 552 444 564 697 677 522 506 644 777 1254 1310 1248 1244 1239 1270 1140 992 1133 800 742 857 530 286 308 162 152 152 169 347 393 248 185 131
256 422 359 186 169 289 347 440 503 558 422 477 451 571 603 356 375 611 725 889 1331 1490 1488 1338 1246 1133 940 853 756 758 457 470 469 271 366 370 388 630 805 241 294 161 78
221 264 247 63 181 259 387 412 474 502 313 380 372 420 216 47 139 232 448 504 579 746 892 1347 1364 1261 1107 787 776 677 615 651 605 669 782 711 644 568 488 460 318 185 53
491 146 251 186 271 249 241 291 503 349 311 372 297 291 181 106 24 64 42 94 204 387 299 307 676 1034 1180 1084 816 767 871 933 910 999 886 770 614 572 533 269 186 119 51
390 209 245 273 368 176 180 78 409 154 168 283 299 389 338 319 233 149 151 143 127 207 299 156 100 125 419 625 600 912 1109 1188 1079 1009 825 684 492 495 391 207 76 58 37
358 314 169 248 367 242 212 63 136 157 142 22 229 207 130 239 373 382 395 397 385 413 413 377 417 345 321 323 383 502 600 951 818 415 484 620 591 404 151 59 0 0 0
469 338 230 379 166 143 279 170 148 63 66 78 164 80 57 3 7 204 203 210 342 469 621 686 670 641 670 632 555 446 581 631 618 550 215 344 448 317 123 11 0 0 0
547 336 360 422 355 107 151 190 58 32 34 15 54 95 57 0 0 39 52 58 123 220 361 425 589 632 663 682 653 463 390 478 596 630 548 97 83 133 55 0 0 0 0
534 50 363 490 361 121 246 175 60 17 2 20 70 128 22 23 61 82 0 0 5 90 201 284 332 356 422 599 589 603 520 421 428 558 674 593 281 65 88 23 0 0 0
906 532 493 535 410 391 264 360 183 64 10 0 8 54 78 47 14 0 71 217 37 66 128 147 196 337 368 363 397 412 399 415 404 425 478 624 612 540 437 408 306 75 2
808 904 676 644 595 313 407 350 568 218 199 38 198 430 213 10 249 285 134 232 228 172 170 220 214 233 250 273 290 307 347 373 352 353 403 454 529 587 625 542 471 508 376
561 933 989 900 643 557 516 511 536 595 609 467 429 610 284 321 629 181 112 133 137 185 288 215 192 205 269 316 352 339 377 310 251 223 253 332 472 590 638 668 659 591 604
473 616 845 1007 840 755 659 460 455 445 630 621 642 728 729 722 465 322 451 99 116 24 24 202 338 332 479 623 572 512 657 584 695 778 857 1006 1051 1007 886 729 753 682 529
456 626 746 858 890 742 612 573 490 501 832 827 650 684 658 613 630 390 252 305 83 113 74 59 233 222 389 850 815 1027 1204 1290 1298 1520 1270 1138 809 951 963 1017 839 814 951
508 624 785 928 863 808 739 642 522 730 782 811 812 842 832 692 619 410 204 213 203 186 229 67 226 271 721 1154 1500 1524 1326 1488 1907 1566 1551 857 1143 963 1214 1474 1593 1528 1398
354 609 746 916 919 684 600 763 807 689 806 760 750 645 581 753 727 717 587 653 482 369 684 797 541 746 1000 1569 1507 1325 1565 2124 2007 1662 1092 1357 1073 1165 1342 1487 1778 1782 1764
126 378 708 850 886 820 848 933 868 959 569 630 662 691 562 715 883 870 1234 1242 1078 730 772 743 901 1071 1368 1328 1409 1501 1800 1929 1740 1462 1461 1401 1170 1292 1550 1790 1849 1920 1640
0 41 230 748 912 869 899 1013 1037 1043 856 653 822 844 889 1052 1101 1013 921 983 1263 1166 1171 1149 1137 1529 1533 1456 1510 1713 1488 1619 1607 1401 1564 1386 1304 1561 1857 1876 1804 1533 895
0 0 52 200 538 852 980 972 893 994 951 787 743 825 959 1028 1112 1093 1246 1280 1081 1040 1294 1451 1549 1530 1459 1591 1506 1117 1159 1712 1490 1518 1805 1430 1439 1786 2085 1826 1360 473 35
0 0 0 55 204 456 834 917 830 936 966 861 880 893 963 1090 1108 1131 1139 1272 1550 1504 1664 1786 1679 1603 1648 1448 1439 1671 1488 1478 1489 1630 1868 1710 1961 2276 2401 1968 406 38 0
0 0 0 0 21 272 452 705 957 997 1087 1016 962 1107 1152 1106 1060 901 868 911 1207 1439 1648 1763 1709 1530 1485 1514 1589 1437 1462 1471 1371 1686 1810 1529 2118 2308 2063 625 0 0 0
0 0 0 0 0 6 114 205 513 1034 1091 1036 1029 1109 1024 964 901 1010 901 697 661 889 1150 1447 1337 1506 1457 1490 1535 1388 1403 1293 1312 1625 1598 1762 2082 2150 1514 10 0 0 0
0 0 0 0 0 0 0 2 54 457 803 979 997 990 979 987 945 944 956 976 978 1038 1046 891 1078 1318 1419 1360 1330 1315 1184 1218 1303 1438 1499 1891 2024 2148 811 2 0 0 0
0 26 10 0 30 44 0 0 0 30 126 345 438 546 747 882 907 713 965 770 970 1011 1066 814 833 953 947 845 793 837 988 1045 1135 1255 1568 1841 2021 2208 2167 633 0 0 0
271 91 46 29 0 140 39 1 0 14 1 0 87 224 239 664 674 618 783 658 578 755 973 1023 958 740 670 732 476 492 842 936 1126 1402 1669 1761 2043 2148 2583 1170 35 0 0
CIN
-91 -75 -70 -78 -76 -80 -80 -70 -79 -87 -76 -92 -94 -89 -78 -79 -67 -46 -23 -1 -2 -1 0 0 -1 -4 0 -2 -3 0 -16 -79 -72 -12 -95 -139 -118 -62 -11 -25 -17 -31 -15
-86 -82 -88 -89 -84 -67 -74 -67 -76 -70 -87 -105 -83 -85 -72 -79 -76 -72 -56 -12 -1 0 0 0 0 0 -1 0 -6 -4 0 -31 -104 -100 -146 -142 -128 -109 -55 -44 -67 -72 -87
-80 -62 -64 -74 -88 -92 -90 -85 -73 -80 -90 -81 -78 -81 -75 -83 -86 -74 -60 -40 -8 0 0 0 0 0 -1 -5 -10 -21 -94 -96 -98 -147 -119 -111 -95 -49 -28 -103 -90 -114 -128
-91 -76 -79 -97 -89 -82 -82 -74 -59 -55 -75 -63 -59 -71 -93 -171 -129 -116 -88 -79 -69 -53 -36 -9 -2 -1 -1 -40 -58 -83 -101 -102 -115 -94 -66 -70 -77 -84 -97 -97 -108 -124 -167
-73 -83 -62 -76 -81 -60 -74 -75 -68 -51 -49 -55 -57 -78 -110 -151 -233 -188 -216 -204 -154 -100 -125 -141 -68 -29 -20 -25 -83 -107 -93 -88 -88 -70 -78 -93 -118 -113 -109 -152 -159 -189 -184
-58 -65 -62 -71 -67 -69 -72 -95 -61 -100 -67 -57 -55 -63 -78 -90 -133 -164 -172 -205 -219 -194 -172 -237 -275 -273 -201 -163 -187 -129 -98 -83 -91 -96 -121 -145 -169 -149 -154 -187 -231 -224 -225
-59 -64 -66 -71 -68 -51 -62 -127 -100 -74 -66 -141 -50 -68 -110 -110 -99 -104 -123 -133 -148 -158 -187 -214 -223 -256 -271 -284 -279 -252 -236 -167 -175 -233 -214 -184 -174 -201 -280 -311 0 0 0
-56 -65 -60 -48 -65 -68 -66 -81 -90 -111 -106 -124 -52 -113 -117 -32 -174 -149 -187 -195 -170 -184 -157 -176 -208 -229 -234 -246 -268 -293 -254 -241 -222 -229 -330 -279 -243 -267 -331 -367 0 0 0
-54 -71 -64 -46 -58 -68 -51 -69 -62 -56 -85 -69 -136 -94 -122 0 0 -172 -154 -277 -264 -265 -258 -269 -251 -253 -262 -265 -270 -293 -291 -265 -236 -238 -252 -385 -386 -339 -363 0 0 0 0
-59 -103 -69 -61 -54 -70 -53 -63 -135 -79 -25 -32 -116 -134 -180 -107 -124 -108 0 0 -337 -293 -296 -305 -311 -313 -310 -282 -287 -275 -285 -305 -308 -275 -236 -253 -315 -375 -354 -387 0 0 0
-46 -52 -62 -61 -59 -60 -59 -49 -59 -99 -75 0 -49 -119 -111 -163 -203 -3 -121 -116 -245 -274 -308 -329 -327 -307 -307 -334 -336 -333 -330 -332 -325 -318 -295 -254 -243 -253 -260 -254 -271 -327 -26
-43 -48 -57 -55 -60 -59 -54 -54 -48 -58 -68 -80 -72 -61 -42 -36 -56 -68 -101 -109 -136 -185 -244 -279 -288 -300 -314 -340 -349 -347 -330 -316 -327 -322 -310 -297 -279 -252 -242 -248 -253 -236 -251
-46 -38 -41 -41 -49 -64 -56 -50 -42 -42 -45 -42 -49 -42 -78 -77 -72 -116 -139 -130 -144 -184 -180 -238 -274 -302 -304 -308 -338 -352 -333 -339 -347 -367 -358 -338 -316 -294 -290 -285 -288 -291 -265
-48 -55 -46 -40 -45 -42 -55 -68 -63 -54 -47 -48 -50 -54 -48 -62 -89 -91 -65 -143 -127 -195 -233 -182 -208 -235 -239 -241 -274 -289 -256 -271 -252 -258 -263 -248 -230 -239 -257 -305 -317 -332 -366
-66 -55 -48 -43 -47 -49 -53 -56 -54 -41 -42 -42 -50 -60 -53 -60 -81 -94 -109 -119 -169 -147 -177 -201 -174 -241 -243 -184 -203 -191 -175 -184 -185 -173 -218 -228 -276 -266 -300 -303 -336 -327 -299
-78 -71 -57 -45 -43 -40 -48 -59 -53 -48 -43 -44 -50 -53 -62 -62 -73 -93 -114 -140 -169 -161 -150 -259 -209 -256 -190 -145 -133 -142 -170 -174 -125 -182 -192 -312 -280 -322 -278 -213 -178 -199 -234
-91 -75 -71 -60 -39 -40 -45 -45 -52 -44 -42 -47 -58 -62 -63 -72 -63 -74 -89 -89 -97 -142 -91 -116 -222 -201 -174 -129 -130 -160 -151 -105 -126 -182 -262 -253 -303 -304 -261 -227 -172 -175 -179
-138 -88 -73 -66 -62 -53 -54 -54 -43 -47 -50 -46 -49 -54 -57 -59 -57 -66 -56 -52 -57 -104 -107 -126 -151 -155 -140 -154 -172 -161 -132 -119 -173 -211 -214 -256 -307 -282 -241 -189 -172 -161 -203
0 -157 -113 -69 -63 -63 -64 -59 -54 -52 -45 -47 -42 -42 -40 -37 -35 -39 -44 -41 -45 -57 -77 -108 -128 -133 -151 -161 -159 -147 -165 -162 -192 -234 -209 -262 -278 -254 -201 -177 -183 -222 -371
0 0 -159 -116 -82 -69 -67 -67 -67 -64 -55 -49 -52 -52 -42 -41 -37 -33 -31 -33 -43 -51 -43 -55 -76 -107 -141 -148 -151 -197 -202 -169 -216 -215 -165 -249 -264 -218 -167 -201 -286 -591 -967
0 0 0 -170 -122 -98 -71 -60 -65 -66 -60 -58 -57 -55 -60 -54 -51 -49 -42 -38 -30 -30 -23 -20 -57 -89 -111 -124 -111 -99 -157 -190 -211 -242 -184 -205 -184 -133 -115 -184 -650 -1015 0
0 0 0 0 -195 -123 -116 -90 -65 -57 -55 -54 -48 -57 -57 -61 -65 -74 -76 -76 -51 -33 -23 -27 -52 -87 -120 -117 -101 -105 -131 -171 -224 -204 -221 -250 -163 -131 -177 -513 0 0 0
0 0 0 0 0 -165 -171 -141 -113 -69 -54 -56 -51 -55 -63 -69 -78 -67 -78 -101 -126 -105 -89 -55 -87 -82 -96 -95 -90 -119 -137 -187 -203 -186 -249 -215 -172 -152 -284 -830 0 0 0
0 0 0 0 0 0 0 -80 -193 -119 -90 -86 -82 -80 -72 -74 -82 -75 -68 -79 -86 -93 -111 -128 -119 -98 -89 -96 -98 -116 -172 -192 -233 -218 -220 -172 -156 -119 -406 -370 0 0 0
0 -319 -224 0 -350 -347 0 0 0 -244 -179 -156 -159 -146 -125 -110 -117 -127 -80 -112 -98 -123 -127 -142 -133 -128 -140 -172 -192 -225 -178 -192 -220 -207 -180 -138 -111 -88 -97 -435 0 0 0
-198 -248 -291 -368 -7 -299 -362 -199 0 -351 -21 0 -230 -234 -244 -155 -167 -165 -113 -132 -149 -148 -110 -99 -104 -169 -216 -216 -272 -283 -206 -218 -204 -199 -132 -115 -86 -67 -40 -277 -428 0 0
Wind_Speed
24 23 23 22 22 22 21 20 16 15 15 16 20 20 19 20 19 19 18 18 17 17 16 17 16 15 14 14 13 13 13 12 12 11 10 10 9 9 9 10 10 10 14
21 21 21 20 20 21 20 20 18 14 13 16 19 20 18 18 19 18 18 16 16 16 16 16 15 15 14 14 13 13 13 12 12 11 11 10 9 9 9 10 13 13 15
19 20 20 20 18 19 19 20 19 15 12 16 18 20 18 18 18 17 17 16 15 16 16 15 15 15 14 14 14 14 13 12 11 10 9 9 9 8 8 9 12 13 14
20 20 20 20 19 19 19 18 19 17 15 17 18 18 16 17 16 16 16 16 15 15 15 15 15 14 14 14 14 14 13 12 11 10 9 8 8 8 9 9 11 12 13
20 20 20 19 20 20 17 17 18 17 18 16 17 17 16 15 16 15 15 15 15 15 15 15 15 15 15 14 14 13 12 11 10 9 9 8 8 8 8 8 9 10 11
20 20 20 19 20 20 19 18 19 17 18 17 17 17 16 16 16 16 15 15 16 16 16 15 15 15 15 14 14 12 11 10 9 9 8 8 7 7 7 8 8 9 10
20 20 20 21 20 21 20 18 20 20 17 17 17 16 16 16 17 16 16 16 17 17 17 16 16 15 15 14 14 13 11 10 9 8 7 7 6 6 6 7 7 7 8
21 21 21 20 21 21 22 19 21 19 18 18 16 15 14 14 15 17 17 17 18 18 18 17 16 16 15 14 13 12 11 10 9 7 6 5 4 4 5 5 6 6 6
22 21 21 21 20 21 22 21 21 19 18 18 17 16 14 15 13 14 15 16 18 19 19 17 17 16 16 15 13 12 11 9 7 6 5 4 3 3 3 4 4 4 4
23 21 22 21 20 21 22 22 21 21 20 20 17 16 15 15 14 13 13 15 16 18 18 18 17 17 16 15 14 12 10 8 6 5 4 3 2 2 3 3 3 3 3
23 22 21 22 21 20 22 22 22 22 21 21 20 17 16 16 15 15 14 13 15 17 18 17 17 16 16 15 13 12 10 8 6 5 4 3 2 2 3 3 3 3 2
24 24 23 22 21 21 21 21 22 22 22 22 21 19 19 17 15 15 15 14 16 17 16 16 17 17 16 15 14 12 10 8 7 6 6 6 6 6 6 6 6 6 5
25 25 24 23 22 21 21 21 22 23 23 23 23 21 19 18 16 15 16 16 16 16 16 15 14 16 16 15 14 14 13 11 10 9 8 7 7 8 8 8 8 8 7
27 25 24 23 22 21 22 22 22 23 24 24 24 23 22 20 19 18 17 18 17 18 17 16 15 14 15 15 16 15 13 12 12 11 10 7 7 8 9 11 11 8 6
29 28 26 24 24 22 22 22 22 22 23 24 25 25 25 23 22 21 21 20 20 20 19 19 18 17 17 18 20 22 20 17 16 15 11 10 11 11 12 12 10 6 5
29 30 28 26 25 24 24 22 22 22 23 25 26 26 26 25 25 24 24 23 22 22 22 21 21 20 20 21 23 24 22 21 19 16 14 16 12 11 12 13 10 7 6
28 30 31 29 28 27 25 24 22 22 22 23 25 27 28 27 27 27 26 26 25 24 25 25 23 23 23 24 26 26 26 27 22 21 20 19 11 11 12 13 10 9 8
28 26 31 32 31 30 26 24 24 22 22 22 24 26 26 27 27 27 27 28 28 27 27 27 27 26 26 27 27 27 27 30 28 26 24 17 9 10 10 15 15 13 14
13 31 29 31 33 31 29 25 24 25 23 22 23 24 25 27 28 28 28 29 29 30 29 30 30 29 29 30 30 30 30 30 33 29 23 15 12 10 12 18 21 21 20
20 16 29 32 31 32 30 29 26 22 24 25 23 23 24 24 27 29 29 30 30 30 30 31 32 32 32 31 32 31 32 32 32 34 29 23 15 13 20 23 24 24 23
29 25 24 26 30 28 27 26 11 26 23 25 28 25 24 24 24 27 31 31 30 31 31 33 34 34 34 34 34 33 34 34 35 25 30 37 31 24 25 25 24 25 26
34 30 26 25 25 27 23 18 18 9 16 19 30 32 27 25 26 28 30 32 33 33 34 33 35 36 37 36 34 35 35 35 31 27 33 38 30 28 27 27 27 29 30
33 32 30 28 25 24 19 16 14 20 12 16 19 30 34 17 19 20 33 32 31 34 35 35 38 36 37 34 34 36 33 30 31 33 30 33 27 28 25 26 28 29 32
32 32 31 29 30 32 23 20 21 17 18 19 14 18 21 18 9 8 8 34 34 35 14 27 31 36 34 35 29 34 32 31 28 29 24 28 26 24 23 23 25 28 31
32 32 31 31 29 33 28 21 22 22 19 20 22 16 15 23 13 11 10 18 38 31 24 10 12 35 35 35 29 31 34 32 32 26 23 23 24 25 22 22 19 26 32
34 33 34 31 30 30 28 25 23 26 23 24 28 29 19 23 15 15 13 12 29 31 25 13 11 14 29 33 30 23 28 25 22 25 20 21 22 24 25 20 20 22 27
Wind_Direction
126 142 138 147 152 145 153 160 181 186 186 179 168 156 152 148 154 161 162 164 168 170 168 164 164 165 168 166 167 165 162 158 157 155 156 152 148 143 136 126 124 119 102
145 147 159 163 167 162 159 162 171 189 197 179 166 162 160 158 162 163 165 175 175 176 174 175 176 175 171 168 167 165 161 158 154 153 152 149 148 141 137 123 106 104 94
160 167 172 176 180 176 177 171 176 195 206 184 170 160 162 163 167 170 172 177 181 181 183 182 180 174 172 170 169 166 164 163 159 158 156 150 143 141 135 122 105 98 90
167 169 171 176 182 186 179 179 177 191 198 176 171 169 177 180 182 182 182 186 188 187 189 185 181 179 175 173 170 168 169 165 162 156 153 150 142 134 126 119 106 99 92
165 166 178 181 186 186 192 196 185 190 186 190 182 180 187 190 185 188 187 192 191 189 188 186 185 180 178 174 174 172 171 169 161 159 152 147 140 132 124 116 106 98 90
160 162 175 182 180 187 185 190 185 192 187 194 184 188 197 195 195 192 191 191 191 190 190 192 189 187 183 181 179 179 172 167 164 159 152 146 140 133 121 111 104 95 89
169 158 164 168 168 180 191 191 188 187 193 190 196 209 211 207 199 200 196 193 193 194 194 191 189 187 188 188 184 178 173 167 160 158 154 150 142 131 115 106 98 94 90
170 162 160 165 166 169 174 187 189 200 205 200 204 217 213 213 209 195 194 202 201 202 201 193 191 187 190 190 184 181 174 168 164 164 165 162 152 125 108 101 91 86 84
178 171 167 168 169 170 169 175 189 206 206 204 212 212 204 188 201 200 196 202 203 204 204 197 196 193 193 187 187 183 179 173 168 172 176 178 147 112 95 87 80 73 72
182 181 175 178 175 178 176 175 184 197 204 198 220 221 215 205 192 192 193 204 210 211 210 204 201 197 191 189 194 190 192 188 188 201 209 209 183 95 66 55 53 54 50
192 188 188 178 176 181 182 186 182 181 199 208 215 222 214 218 204 193 190 206 212 220 218 211 205 201 196 193 197 198 200 199 202 220 226 235 265 310 341 354 354 355 344
206 200 191 190 182 176 182 185 195 198 199 213 219 221 218 219 221 211 197 202 196 213 224 221 214 210 214 215 216 216 210 213 232 243 255 270 288 305 320 324 322 312 302
205 199 194 193 191 187 187 192 193 198 202 210 214 223 226 228 225 226 213 210 203 210 214 223 243 232 230 225 233 233 235 241 252 260 268 282 300 309 319 325 322 308 295
205 204 197 191 188 187 193 194 192 202 205 211 214 217 220 227 228 231 230 222 220 219 224 222 223 254 262 264 276 270 255 259 266 270 274 291 319 333 340 338 332 320 308
219 214 205 196 192 189 186 189 188 192 211 220 220 224 224 227 231 232 235 231 226 222 225 232 223 232 257 265 285 292 282 275 277 277 272 294 309 327 334 352 355 349 347
234 229 211 201 200 197 192 188 192 198 202 216 228 231 233 237 238 241 235 231 220 224 227 233 239 244 255 266 293 293 282 282 280 274 279 295 314 338 3 6 359 12 25
253 243 225 216 212 205 197 193 191 194 199 207 225 230 233 241 240 248 248 241 236 231 236 248 243 251 259 271 282 287 290 292 284 284 286 295 319 1 2 5 15 35 33
258 262 243 228 217 212 201 196 197 196 195 201 211 224 226 246 242 249 257 251 243 242 241 246 255 262 264 277 280 281 287 304 293 292 291 294 355 347 345 21 34 36 35
253 255 257 252 228 212 208 202 200 200 200 201 204 208 215 239 245 252 253 257 259 259 265 262 261 287 290 288 283 287 289 293 313 298 289 16 1 336 18 30 29 28 29
259 256 259 258 259 249 211 210 207 194 200 206 201 203 210 209 225 252 261 261 265 267 271 269 272 274 284 292 291 285 289 304 295 308 356 10 10 20 25 23 22 23 25
260 261 261 264 264 268 271 274 263 205 199 205 216 211 213 214 215 226 266 269 274 275 275 276 275 283 283 288 289 300 297 297 303 351 351 332 359 14 17 18 20 19 17
260 261 260 261 263 267 270 274 280 264 201 202 220 230 221 218 223 227 234 239 273 279 276 282 281 280 284 289 296 299 302 307 326 346 339 320 357 360 9 11 14 11 9
261 261 262 261 260 262 257 243 235 276 263 211 209 224 237 214 214 219 247 240 235 244 279 282 278 285 286 301 299 294 309 320 322 329 341 341 357 356 10 12 8 7 2
261 262 262 263 264 264 257 231 222 242 267 274 261 218 218 220 234 234 235 252 282 250 273 295 291 286 293 295 308 299 307 316 325 330 343 342 353 1 10 13 11 7 3
263 263 263 264 264 266 264 246 248 260 248 232 274 266 239 223 239 245 249 231 272 237 300 242 273 288 291 292 304 304 302 311 315 331 342 345 350 354 5 11 21 8 360
263 264 264 265 265 267 266 261 256 266 261 266 274 277 238 226 252 272 251 262 233 253 300 298 295 301 299 296 299 306 308 314 323 328 342 344 348 353 356 14 15 12 7